| time (UTC) | temp F | wind direction | speed knots | gust knots | rain 1hr in | rain 24hr in | rain mn in | humidity % | barometer mb |
| 20260510044549 | 73 | 0 | 0.0 | 1.7 | 0.00 | 0.02 | 0.02 | 83 | 1010.7 |
| 20260510043125 | 73 | 0 | 0.0 | 0.0 | 0.00 | 0.02 | 0.02 | 80 | 1010.9 |
| 20260510041554 | 75 | 0 | 0.0 | 0.9 | 0.00 | 0.02 | 0.02 | 78 | 1010.8 |
| 20260510040048 | 76 | 0 | 0.0 | 1.7 | 0.00 | 0.02 | 0.02 | 78 | 1010.9 |
| 20260510034554 | 77 | 0 | 0.0 | 2.6 | 0.00 | 0.02 | 0.02 | 77 | 1010.7 |
| 20260510033050 | 77 | 179 | 0.9 | 5.2 | 0.00 | 0.02 | 0.02 | 75 | 1010.6 |
| 20260510031615 | 77 | 124 | 0.0 | 3.5 | 0.00 | 0.02 | 0.02 | 73 | 1010.4 |
| 20260510030047 | 77 | 155 | 0.0 | 1.7 | 0.00 | 0.02 | 0.02 | 71 | 1010.2 |
| 20260510024549 | 77 | 125 | 0.0 | 0.9 | 0.00 | 0.02 | 0.02 | 70 | 1010.0 |
| 20260510023052 | 77 | 0 | 0.0 | 1.7 | 0.00 | 0.02 | 0.02 | 67 | 1009.8 |
| 20260510021548 | 78 | 0 | 0.0 | 2.6 | 0.00 | 0.02 | 0.02 | 65 | 1009.6 |
| 20260510020048 | 79 | 142 | 0.0 | 4.3 | 0.00 | 0.02 | 0.02 | 63 | 1009.5 |
| 20260510014550 | 80 | 0 | 0.0 | 3.5 | 0.00 | 0.02 | 0.02 | 61 | 1009.4 |
| 20260510013050 | 80 | 176 | 0.0 | 2.6 | 0.00 | 0.02 | 0.02 | 58 | 1009.3 |
| 20260510011602 | 81 | 0 | 0.0 | 2.6 | 0.00 | 0.02 | 0.02 | 54 | 1009.1 |
| 20260510010058 | 83 | 133 | 0.0 | 1.7 | 0.00 | 0.02 | 0.02 | 52 | 1008.9 |
| 20260510004543 | 84 | 0 | 0.0 | 5.2 | 0.00 | 0.02 | 0.02 | 51 | 1008.8 |
| 20260510003046 | 85 | 109 | 1.7 | 7.0 | 0.00 | 0.02 | 0.02 | 50 | 1008.6 |
| 20260510001547 | 87 | 119 | 2.6 | 7.8 | 0.00 | 0.02 | 0.02 | 52 | 1008.5 |
| 20260510000047 | 89 | 117 | 0.0 | 5.2 | 0.00 | 0.02 | 0.02 | 50 | 1008.3 |
| 20260509234547 | 89 | 117 | 1.7 | 4.3 | 0.00 | 0.02 | 0.02 | 50 | 1008.2 |
| 20260509233047 | 90 | 103 | 0.9 | 3.5 | 0.00 | 0.02 | 0.02 | 50 | 1008.1 |
| 20260509231550 | 90 | 151 | 0.9 | 3.5 | 0.00 | 0.02 | 0.02 | 49 | 1008.1 |
| 20260509230045 | 90 | 117 | 0.9 | 6.1 | 0.00 | 0.02 | 0.02 | 49 | 1008.1 |
| 20260509224548 | 90 | 102 | 0.0 | 3.5 | 0.00 | 0.02 | 0.02 | 49 | 1008.1 |
| 20260509223049 | 90 | 134 | 1.7 | 6.1 | 0.00 | 0.02 | 0.02 | 50 | 1008.1 |
| 20260509221547 | 91 | 119 | 1.7 | 3.5 | 0.00 | 0.02 | 0.02 | 48 | 1008.1 |
| 20260509220049 | 91 | 210 | 0.9 | 6.1 | 0.00 | 0.02 | 0.02 | 48 | 1008.1 |
| 20260509214547 | 92 | 0 | 0.0 | 4.3 | 0.00 | 0.02 | 0.02 | 41 | 1008.2 |
| 20260509213058 | 92 | 91 | 1.7 | 6.1 | 0.00 | 0.02 | 0.02 | 41 | 1008.3 |
| 20260509211609 | 93 | 249 | 0.0 | 5.2 | 0.00 | 0.02 | 0.02 | 45 | 1008.3 |
| 20260509210056 | 92 | 246 | 0.9 | 4.3 | 0.00 | 0.02 | 0.02 | 45 | 1008.7 |
| 20260509204558 | 92 | 295 | 2.6 | 5.2 | 0.00 | 0.02 | 0.02 | 47 | 1008.9 |
| 20260509203056 | 92 | 212 | 0.9 | 3.5 | 0.00 | 0.02 | 0.02 | 45 | 1009.1 |
| 20260509201550 | 91 | 238 | 0.9 | 7.8 | 0.00 | 0.02 | 0.02 | 48 | 1009.2 |
| 20260509200045 | 91 | 230 | 0.9 | 7.0 | 0.00 | 0.02 | 0.02 | 48 | 1009.3 |
| 20260509194546 | 90 | 314 | 0.9 | 5.2 | 0.00 | 0.02 | 0.02 | 50 | 1009.3 |
| 20260509193048 | 90 | 278 | 0.9 | 6.1 | 0.00 | 0.02 | 0.02 | 50 | 1009.5 |
| 20260509191545 | 90 | 200 | 3.5 | 8.7 | 0.00 | 0.02 | 0.02 | 53 | 1009.7 |
| 20260509190049 | 88 | 283 | 1.7 | 4.3 | 0.00 | 0.02 | 0.02 | 57 | 1010.0 |
| 20260509184547 | 87 | 283 | 0.9 | 5.2 | 0.00 | 0.02 | 0.02 | 62 | 1010.4 |
| 20260509183056 | 86 | 224 | 0.0 | 4.3 | 0.00 | 0.02 | 0.02 | 63 | 1010.6 |
| 20260509181559 | 86 | 0 | 0.0 | 7.0 | 0.00 | 0.02 | 0.02 | 63 | 1010.8 |
| 20260509180051 | 86 | 113 | 0.9 | 3.5 | 0.00 | 0.02 | 0.02 | 63 | 1011.0 |
| 20260509174554 | 86 | 25 | 0.0 | 4.3 | 0.00 | 0.02 | 0.02 | 62 | 1011.1 |
| 20260509173044 | 86 | 196 | 0.9 | 4.3 | 0.00 | 0.02 | 0.02 | 63 | 1011.3 |
| 20260509171549 | 86 | 150 | 0.9 | 5.2 | 0.00 | 0.02 | 0.02 | 63 | 1011.2 |
| 20260509170044 | 86 | 245 | 1.7 | 4.3 | 0.00 | 0.02 | 0.02 | 65 | 1011.4 |
| 20260509164547 | 85 | 262 | 1.7 | 4.3 | 0.00 | 0.02 | 0.02 | 67 | 1011.3 |
| 20260509163058 | 84 | 167 | 1.7 | 5.2 | 0.00 | 0.02 | 0.02 | 69 | 1011.4 |
| 20260509161544 | 82 | 122 | 0.9 | 6.1 | 0.00 | 0.02 | 0.02 | 74 | 1011.4 |
| 20260509160045 | 82 | 143 | 1.7 | 5.2 | 0.00 | 0.02 | 0.02 | 76 | 1011.5 |
| 20260509154550 | 80 | 102 | 1.7 | 6.1 | 0.00 | 0.02 | 0.02 | 80 | 1011.8 |
| 20260509153047 | 78 | 140 | 1.7 | 4.3 | 0.00 | 0.02 | 0.02 | 82 | 1011.9 |
| 20260509151545 | 80 | 202 | 0.0 | 4.3 | 0.00 | 0.02 | 0.02 | 80 | 1011.7 |
| 20260509150052 | 78 | 194 | 0.9 | 3.5 | 0.00 | 0.02 | 0.02 | 84 | 1011.4 |
| 20260509144549 | 77 | 0 | 0.0 | 2.6 | 0.00 | 0.02 | 0.02 | 86 | 1011.5 |
| 20260509143053 | 75 | 206 | 0.0 | 4.3 | 0.00 | 0.02 | 0.02 | 90 | 1011.1 |
| 20260509141549 | 75 | 256 | 0.0 | 3.5 | 0.00 | 0.02 | 0.02 | 94 | 1010.8 |
| 20260509140049 | 74 | 0 | 0.0 | 3.5 | 0.00 | 0.02 | 0.02 | 95 | 1010.8 |
| 20260509134553 | 73 | 0 | 0.9 | 2.6 | 0.00 | 0.02 | 0.02 | 95 | 1010.7 |
| 20260509133059 | 73 | 120 | 0.0 | 0.9 | 0.00 | 0.02 | 0.02 | 97 | 1011.1 |
| 20260509131547 | 72 | 57 | 0.0 | 0.9 | 0.00 | 0.02 | 0.02 | 97 | 1011.4 |
| 20260509130046 | 71 | 0 | 0.0 | 0.9 | 0.00 | 0.02 | 0.02 | 97 | 1011.3 |
| 20260509124551 | 71 | 0 | 0.0 | 0.9 | 0.00 | 0.02 | 0.02 | 96 | 1011.4 |
| 20260509123051 | 71 | 0 | 0.0 | 0.9 | 0.00 | 0.02 | 0.02 | 96 | 1011.1 |
| 20260509121555 | 71 | 0 | 0.0 | 0.9 | 0.00 | 0.02 | 0.02 | 96 | 1010.9 |
| 20260509120048 | 71 | 2 | 0.0 | 0.9 | 0.00 | 0.02 | 0.02 | 96 | 1011.1 |
| 20260509114556 | 71 | 0 | 0.0 | 0.0 | 0.00 | 0.02 | 0.02 | 96 | 1011.5 |
| 20260509113052 | 71 | 0 | 0.0 | 1.7 | 0.00 | 0.02 | 0.02 | 96 | 1011.8 |
| 20260509111549 | 71 | 0 | 0.0 | 1.7 | 0.00 | 0.02 | 0.02 | 96 | 1011.8 |
| 20260509110050 | 71 | 51 | 0.9 | 2.6 | 0.00 | 0.02 | 0.02 | 96 | 1012.1 |
| 20260509104552 | 70 | 0 | 0.0 | 1.7 | 0.00 | 0.02 | 0.02 | 96 | 1012.1 |
| 20260509103050 | 70 | 0 | 0.0 | 1.7 | 0.00 | 0.02 | 0.02 | 96 | 1012.0 |
| 20260509101549 | 70 | 0 | 0.0 | 0.9 | 0.00 | 0.02 | 0.02 | 96 | 1011.6 |
| 20260509100057 | 70 | 0 | 0.0 | 0.0 | 0.01 | 0.02 | 0.02 | 95 | 1011.0 |
| 20260509094551 | 70 | 0 | 0.0 | 0.0 | 0.01 | 0.02 | 0.02 | 95 | 1010.8 |
| 20260509093051 | 70 | 0 | 0.0 | 0.0 | 0.02 | 0.02 | 0.02 | 95 | 1010.6 |
| 20260509091552 | 70 | 0 | 0.0 | 0.0 | 0.02 | 0.02 | 0.02 | 95 | 1010.6 |
| 20260509090052 | 70 | 0 | 0.0 | 0.0 | 0.01 | 0.01 | 0.01 | 95 | 1010.6 |
| 20260509084558 | 70 | 0 | 0.0 | 0.9 | 0.01 | 0.01 | 0.01 | 94 | 1010.8 |
| 20260509083049 | 70 | 0 | 0.0 | 2.6 | 0.00 | 0.00 | 0.00 | 94 | 1011.1 |
| 20260509081552 | 71 | 51 | 0.0 | 1.7 | 0.00 | 0.00 | 0.00 | 93 | 1010.9 |
| 20260509080129 | 71 | 0 | 0.0 | 0.9 | 0.00 | 0.00 | 0.00 | 93 | 1010.9 |
| 20260509074551 | 71 | 0 | 0.0 | 0.9 | 0.00 | 0.00 | 0.00 | 93 | 1011.0 |
| 20260509073147 | 71 | 0 | 0.0 | 0.9 | 0.00 | 0.00 | 0.00 | 93 | 1010.9 |
| 20260509071550 | 72 | 0 | 0.0 | 0.0 | 0.00 | 0.00 | 0.00 | 92 | 1010.9 |
| 20260509070050 | 72 | 0 | 0.0 | 0.0 | 0.00 | 0.00 | 0.00 | 92 | 1010.9 |
| 20260509064550 | 72 | 0 | 0.0 | 0.0 | 0.00 | 0.00 | 0.00 | 93 | 1011.0 |
| 20260509063125 | 72 | 0 | 0.0 | 2.6 | 0.00 | 0.00 | 0.00 | 93 | 1010.7 |
| 20260509061551 | 71 | 0 | 0.0 | 1.7 | 0.00 | 0.00 | 0.00 | 94 | 1010.7 |
| 20260509060050 | 71 | 0 | 0.0 | 1.7 | 0.00 | 0.00 | 0.00 | 94 | 1010.5 |
| 20260509054547 | 70 | 142 | 0.0 | 2.6 | 0.00 | 0.00 | 0.00 | 94 | 1010.4 |
| 20260509053050 | 70 | 0 | 0.0 | 2.6 | 0.00 | 0.00 | 0.00 | 94 | 1010.7 |
| 20260509051548 | 70 | 0 | 0.0 | 3.5 | 0.00 | 0.00 | 0.00 | 94 | 1010.3 |
| 20260509050045 | 69 | 152 | 0.0 | 0.9 | 0.00 | 0.00 | 0.00 | 94 | 1010.1 |